Location: Baix
(44.7118°N, 4.7648°E)
Time: 10:49:13
(UTC+00:00)

Vanguard 2 Rocket - Pass Details

Date: 26 November 2020
Orbit: 554 x 3325 km, 32.9° (Epoch: 21 January)

Event Time Altitude Azimuth Distance (km) Brightness Sun altitude
Rises 09:18:22 0° 245° (WSW) 7,308 11.4 17.9°
Reaches altitude 10° 09:23:36 10° 241° (WSW) 6,253 11.2 18.3°
Maximum altitude 09:41:51 51° 173° (S) 3,200 10.8 19.9°
Drops below altitude 10° 09:54:08 10° 103° (ESE) 4,349 11.0 20.8°
Sets 09:57:03 0° 98° (E) 5,025 11.1 21.0°
